User: anonymous   Login
Location: Fisheating Creek Campgrounds
(26.9333°N, 81.3167°W)
Time: 09:15:17
(UTC-05:00)
Language:

NATO 3D Rocket - Orbit

View from above orbital plane
View from above orbital plane
View from above satellite
View from above satellite

Ground track
Ground track

The orbit data is extracted from the following two-line orbital elements,

1 15392U 84115B   17345.94880501 +.00000168 +00000-0 +21565-4 0  9992
2 15392 021.4893 218.8476 1034166 037.8350 329.0416 12.45552712488405
Epoch (UTC): 11 December 2017 22:46:16
Eccentricity: 0.1034166
inclination: 21.4893°
perigee height: 670 km
apogee height: 2296 km
right ascension of ascending node: 218.8476°
argument of perigee: 37.8350°
revolutions per day: 12.45552712
mean anomaly at epoch: 329.0416°
orbit number at epoch: 48840

The dashed part of the orbit path shows where the satellite is in the earth's shadow,  

DLR